Regional Weather Roundup
Issued by NWS Little Rock, AR

Home | Current Version | Previous Version | Text Only | Print | Product List | Glossary Off
Versions: 1 2 3 4 5 6 7 8 9 10 11 12 13 14 15 16 17 18 19 20 21 22 23 24 25 26 27 28 29 30 31 32 33 34 35 36 37 38 39 40 41 42 43 44 45 46 47 48 49 50

000
ASUS44 KLZK 191605
RWRLZK

WEATHER ROUNDUP FOR ARKANSAS
NATIONAL WEATHER SERVICE LITTLE ROCK AR
1100 AM CDT SUN APR 19 2015

NOTE: "FAIR" INDICATES FEW OR NO CLOUDS BELOW 12,000 FEET WITH NO
SIGNIFICANT WEATHER AND/OR OBSTRUCTIONS TO VISIBILITY.

ARZ001-003-010-029-191700-
NORTHWEST ARKANSAS

CITY           SKY/WX    TMP DP  RH WIND       PRES   REMARKS
FAYETTEVILLE   PTSUNNY   64  55  72 CALM      29.74S
FORT SMITH     SUNNY     69  53  56 SW3       29.73S
HARRISON       CLOUDY    63  55  75 W9        29.71S
BENTONVILLE    CLOUDY    63  52  67 CALM      29.75S
ROGERS         CLOUDY    63  54  72 SW3       29.75R
SILOAM SPGS    PTSUNNY   64  52  63 W6        29.77R
HIGHFILL       PTSUNNY   65  53  65 VRB3      29.74S
SPRINGDALE     MOSUNNY   63  54  72 S7        29.76S
$$

ARZ004-005-016-191700-
NORTH CENTRAL ARKANSAS

CITY           SKY/WX    TMP DP  RH WIND       PRES   REMARKS
BATESVILLE     CLOUDY    68  63  83 W9        29.65R
FLIPPIN        CLOUDY    66 N/A N/A SW9       29.66S
MTN HOME       CLOUDY    65  58  78 W6        29.66F
$$

ARZ040-041-191700-
WEST CENTRAL ARKANSAS

CITY           SKY/WX    TMP DP  RH WIND       PRES   REMARKS
MENA           SUNNY     72  57  60 W8        29.74S
MOUNT IDA      SUNNY     71  57  61 W6        29.71R
$$

ARZ009-017-025-026-028-191700-
NORTHEAST ARKANSAS

CITY           SKY/WX    TMP DP  RH WIND       PRES   REMARKS
CORNING          N/A     68  64  88 NW13      29.60S
JONESBORO      MOSUNNY   69  63  81 W12       29.61S
NEWPORT        PTSUNNY   72  63  73 W8        29.64S
WALNUT RIDGE   MOSUNNY   70  61  73 NW15      29.59F
BLYTHEVILLE    PTSUNNY   72  66  81 W13       29.61R
$$

ARZ022-023-033-042-044-191700-
CENTRAL ARKANSAS

CITY           SKY/WX    TMP DP  RH WIND       PRES   REMARKS
LITTLE ROCK    CLOUDY    69  61  75 NW5       29.69F
N LITTLE ROCK  PTSUNNY   65  63  93 W3        29.69F
JACKSONVILLE   CLOUDY    68  63  83 W6        29.69S
SEARCY         CLOUDY    67  62  84 W7        29.69R
HOT SPRINGS    MOSUNNY   68  59  73 VRB3      29.72S
RUSSELLVILLE   CLOUDY    68  58  70 W7        29.71S
CLINTON        FAIR      68  61  77 S3        29.70F
$$

ARZ036-191700-
EAST ARKANSAS

CITY           SKY/WX    TMP DP  RH WIND       PRES   REMARKS
WEST MEMPHIS   CLOUDY    69  65  86 VRB6      29.64R
$$

ARZ050-053-066-070-073-191700-
SOUTHWEST ARKANSAS

CITY           SKY/WX    TMP DP  RH WIND       PRES   REMARKS
ARKADELPHIA    FAIR      74  62  66 SW13      29.74S
CAMDEN         SUNNY     73  59  60 NE6       29.75R
TEXARKANA      SUNNY     70  59  68 SW12      29.76S
EL DORADO      SUNNY     70  60  70 S6        29.77R
DE QUEEN       SUNNY     70  59  68 SW5       29.72S
$$

ARZ056-057-069-191700-
SOUTHEAST ARKANSAS

CITY           SKY/WX    TMP DP  RH WIND       PRES   REMARKS
PINE BLUFF     CLOUDY    69  62  78 W6        29.71R
STUTTGART      CLOUDY    66  61  82 W10       29.70R
MONTICELLO     MOSUNNY   70  59  68 W7        29.74R

$$





USA.gov is the U.S. government's official web portal to all federal, state and local government web resources and services.